Location: Arlington
(40.6323°N, 74.1651°W)
Time: 19:18:45
(UTC+00:00)

SeaSat 1 - Pass Details

Date: 22 November 2019
Orbit: 745 x 747 km, 108.0° (Epoch: 14 December)

Event Time Altitude Azimuth Distance (km) Brightness Sun altitude
Exits shadow 23:09:55 - 140° (SE) 2,477 4.9 -18.0°
Reaches altitude 10° 23:10:28 10° 139° (SE) 2,254 4.6 -18.1°
Maximum altitude 23:15:17 60° 60° (ENE) 850 2.4 -19.0°
Drops below altitude 10° 23:20:09 10° 341° (NNW) 2,269 5.0 -19.9°
Sets 23:22:26 0° 338° (NNW) 3,197 5.9 -20.3°
